Location: Wapato
(46.4478°N, 120.4212°W)
Time: 10:06:06
(UTC+00:00)

Injun/Solrad 3 - Pass Details

Date: 18 May 2026
Orbit: 867 x 989 km, 66.8° (Epoch: 10 June)

Event Time Altitude Azimuth Distance (km) Brightness Sun altitude
Rises 21:12:34 0° 159° (SSE) 3,508 11.1 59.2°
Reaches altitude 10° 21:16:01 10° 138° (SE) 2,597 10.5 58.9°
Maximum altitude 21:19:32 16° 102° (ESE) 2,212 9.9 58.5°
Drops below altitude 10° 21:23:08 10° 66° (ENE) 2,659 10.1 58.1°
Sets 21:26:42 0° 47° (NE) 3,634 10.7 57.7°
